EW7152 Weather Reports


Display with metric or nautical units.
time (UTC)temp
F
wind
direction
speed
MPH
gust
MPH
rain 1hr
in
rain 24hr
in
rain mn
in
humidity
%
barometer
mb
20260509043027 66 288 0.0 0.0 0.00 0.00 0.00 48 1024.6
20260509041525 65 266 0.0 0.0 0.00 0.00 0.00 49 1024.6
20260509040024 66 85 0.0 0.0 0.00 0.00 0.00 49 1024.7
20260509034524 65 292 0.0 5.0 0.00 0.00 0.00 51 1024.8
20260509033018 64 50 0.0 1.0 0.00 0.00 0.00 52 1024.8
20260509031514 63 293 0.0 5.0 0.00 0.00 0.00 53 1024.9
20260509030012 62 102 0.0 7.0 0.00 0.00 0.00 54 1025.2
20260509024509 62 69 1.0 9.0 0.00 0.00 0.00 56 1025.4
20260509023007 62 57 1.0 5.0 0.00 0.00 0.00 58 1025.6
20260509021504 60 168 1.0 5.0 0.00 0.00 0.00 57 1025.8
20260509020004 60 171 4.0 8.0 0.00 0.00 0.00 57 1026.2
20260509014502 60 113 3.0 12.0 0.00 0.00 0.00 59 1026.4
20260509013109 59 110 2.0 12.0 0.00 0.00 0.00 60 1026.6
20260509011556 58 83 3.0 7.0 0.00 0.00 0.00 63 1026.7
20260509010054 58 67 2.0 8.0 0.00 0.00 0.00 63 1026.9
20260509004553 57 62 6.0 10.0 0.00 0.00 0.00 65 1027.2
20260509003048 56 70 3.0 11.0 0.00 0.00 0.00 67 1027.4
20260509001545 55 103 4.0 13.0 0.00 0.00 0.00 67 1027.5
20260509000040 53 103 6.0 11.0 0.00 0.00 0.00 67 1027.6
20260508234536 51 79 4.0 11.0 0.00 0.00 0.00 75 1027.8
20260508233042 48 105 6.0 10.0 0.00 0.00 0.00 86 1027.8
20260508231528 44 108 4.0 9.0 0.00 0.00 0.00 93 1027.9
20260508230023 40 76 0.0 1.0 0.00 0.00 0.00 93 1028.1
20260508224518 36 198 0.0 0.0 0.00 0.00 0.00 93 1028.0
20260508223022 33 197 0.0 0.0 0.00 0.00 0.00 93 1027.9
20260508221509 31 197 0.0 0.0 0.00 0.00 0.00 92 1027.9
20260508220005 28 197 0.0 2.0 0.00 0.00 0.00 90 1027.9
20260508214503 27 197 0.0 0.0 0.00 0.00 0.00 88 1027.7
20260508213101 26 197 0.0 0.0 0.00 0.00 0.00 87 1027.4
20260508211602 24 197 0.0 0.0 0.00 0.00 0.00 85 1027.2
20260508210056 24 197 0.0 0.0 0.00 0.00 0.00 86 1026.9
20260508204555 24 197 0.0 0.0 0.00 0.00 0.00 85 1026.6
20260508203055 24 197 0.0 0.0 0.00 0.00 0.00 85 1026.3
20260508201548 24 197 0.0 0.0 0.00 0.00 0.00 85 1026.0
20260508200052 24 197 0.0 0.0 0.00 0.00 0.00 85 1025.9
20260508194541 24 197 0.0 0.0 0.00 0.00 0.00 85 1025.7
20260508193042 25 197 0.0 0.0 0.00 0.00 0.00 85 1025.5
20260508191541 25 197 0.0 0.0 0.00 0.00 0.00 86 1025.3
20260508190035 25 197 0.0 0.0 0.00 0.00 0.00 86 1025.2
20260508184534 25 197 0.0 0.0 0.00 0.00 0.00 86 1025.0
20260508183031 25 197 0.0 0.0 0.00 0.00 0.00 86 1025.1
20260508181531 25 197 0.0 0.0 0.00 0.00 0.00 86 1025.0
20260508180028 25 197 0.0 0.0 0.00 0.00 0.00 86 1025.0
20260508174529 25 197 0.0 0.0 0.00 0.00 0.00 86 1025.1
20260508173025 25 197 0.0 0.0 0.00 0.00 0.00 86 1025.0
20260508171527 25 197 0.0 0.0 0.00 0.00 0.00 86 1025.0
20260508170022 26 197 0.0 0.0 0.00 0.00 0.00 86 1024.8
20260508164519 26 197 0.0 0.0 0.00 0.00 0.00 86 1024.8
20260508163017 26 197 0.0 0.0 0.00 0.00 0.00 86 1025.0
20260508161515 27 197 0.0 0.0 0.00 0.00 0.00 86 1024.9
20260508160017 27 197 0.0 0.0 0.00 0.00 0.00 86 1024.8
20260508154511 27 197 0.0 0.0 0.00 0.00 0.00 86 1024.8
20260508153009 28 197 0.0 0.0 0.00 0.00 0.00 86 1024.7
20260508151508 28 197 0.0 0.0 0.00 0.00 0.00 86 1024.7
20260508150006 28 197 0.0 0.0 0.00 0.00 0.00 87 1024.6
20260508144505 28 197 0.0 0.0 0.00 0.00 0.00 87 1024.6
20260508143002 29 197 0.0 0.0 0.00 0.00 0.00 87 1024.6
20260508141601 29 197 0.0 0.0 0.00 0.00 0.00 87 1024.5
20260508140115 30 197 0.0 0.0 0.00 0.00 0.00 87 1024.5
20260508134558 30 198 0.0 0.0 0.00 0.00 0.00 88 1024.6
20260508133103 30 198 0.0 0.0 0.00 0.00 0.00 88 1024.7
20260508131559 31 197 0.0 0.0 0.00 0.00 0.00 88 1024.7
20260508130106 31 197 0.0 0.0 0.00 0.00 0.00 88 1024.6
20260508124555 32 197 0.0 0.0 0.00 0.00 0.00 88 1024.7
20260508123059 33 197 0.0 0.0 0.00 0.00 0.00 88 1024.7
20260508121619 33 197 0.0 0.0 0.00 0.00 0.00 88 1024.8
20260508120053 34 198 0.0 2.0 0.00 0.00 0.00 88 1024.8
20260508114554 34 197 0.0 0.0 0.00 0.00 0.00 88 1024.8
20260508113051 35 198 1.0 2.0 0.00 0.00 0.00 88 1024.7
20260508111552 35 198 0.0 0.0 0.00 0.00 0.00 88 1024.5
20260508110049 35 198 1.0 2.0 0.00 0.00 0.00 88 1024.3
20260508104554 36 197 1.0 2.0 0.00 0.00 0.00 87 1024.0
20260508103048 36 199 1.0 3.0 0.00 0.00 0.00 86 1023.8
20260508101547 36 186 1.0 3.0 0.00 0.00 0.00 87 1023.6
20260508100042 37 156 2.0 4.0 0.00 0.00 0.00 84 1023.6
20260508094547 39 216 0.0 2.0 0.00 0.00 0.00 82 1023.4
20260508093046 40 216 1.0 2.0 0.00 0.00 0.00 82 1023.4
20260508091550 42 215 0.0 2.0 0.00 0.00 0.00 79 1023.3
20260508090051 43 215 1.0 2.0 0.00 0.00 0.00 78 1023.1
20260508084535 43 215 0.0 3.0 0.00 0.00 0.00 77 1022.7
20260508083033 44 217 0.0 0.0 0.00 0.00 0.00 76 1022.2
20260508081540 45 216 1.0 5.0 0.00 0.00 0.00 76 1022.2
20260508080040 45 230 2.0 5.0 0.00 0.00 0.00 75 1022.0
20260508074631 46 268 0.0 6.0 0.00 0.00 0.00 74 1021.9
20260508073034 46 241 2.0 10.0 0.00 0.00 0.00 73 1021.7
20260508071534 47 275 5.0 13.0 0.00 0.00 0.00 72 1021.6
20260508070041 48 245 5.0 12.0 0.00 0.00 0.00 70 1021.3
20260508064534 49 289 4.0 12.0 0.00 0.00 0.00 68 1021.3
20260508063029 50 243 5.0 12.0 0.00 0.00 0.00 67 1021.6
20260508061526 50 239 3.0 10.0 0.00 0.00 0.00 67 1021.5
20260508060033 50 224 5.0 12.0 0.00 0.00 0.00 66 1021.3
20260508054530 51 220 6.0 12.0 0.00 0.00 0.00 65 1021.4
20260508053025 51 213 4.0 11.0 0.00 0.00 0.00 66 1021.3
20260508051524 51 236 6.0 13.0 0.00 0.00 0.00 65 1021.3
20260508050024 51 215 7.0 13.0 0.00 0.00 0.00 65 1021.4
20260508044523 51 207 6.0 12.0 0.00 0.00 0.00 64 1021.2